Temp
-14 -14 -14 -13 -13 -13 -13 -13 -13 -13 -13 -13 -13 -13 -13 -14 -14 -14 -14 -14 -14 -14 -14 -14 -13 -14 -14 -14 -14 -14 -14 -14
-14 -14 -13 -14 -13 -13 -14 -13 -13 -13 -13 -13 -13 -14 -14 -14 -14 -14 -14 -15 -14 -14 -14 -14 -14 -14 -13 -13 -14 -14 -14 -14
-14 -14 -14 -14 -14 -14 -13 -13 -13 -13 -14 -14 -14 -14 -14 -15 -15 -15 -14 -15 -15 -15 -14 -14 -14 -14 -14 -14 -14 -14 -14 -14
-14 -14 -14 -13 -13 -13 -13 -13 -14 -14 -14 -15 -15 -15 -15 -15 -15 -15 -15 -15 -15 -15 -15 -15 -15 -15 -15 -15 -15 -15 -14 -15
-14 -13 -13 -13 -13 -14 -14 -14 -14 -14 -15 -15 -15 -15 -15 -15 -15 -15 -15 -15 -15 -15 -15 -15 -15 -15 -15 -15 -16 -16 -16 -15
-13 -13 -13 -13 -14 -14 -14 -14 -14 -15 -15 -15 -16 -16 -15 -15 -15 -14 -14 -14 -15 -15 -15 -15 -15 -15 -16 -16 -16 -16 -16 -16
-13 -14 -14 -14 -14 -14 -14 -14 -15 -15 -15 -16 -16 -16 -15 -15 -15 -15 -15 -15 -15 -16 -16 -16 -16 -16 -16 -16 -16 -16 -16 -16
-14 -14 -15 -14 -14 -15 -15 -15 -15 -16 -15 -16 -16 -15 -15 -15 -15 -15 -16 -16 -16 -16 -16 -17 -17 -17 -17 -17 -17 -16 -16 -16
-14 -15 -15 -15 -15 -15 -15 -15 -16 -15 -15 -16 -16 -16 -16 -16 -16 -16 -16 -16 -16 -17 -17 -17 -17 -17 -17 -17 -17 -16 -16 -16
-15 -15 -15 -15 -15 -15 -14 -15 -15 -15 -16 -16 -16 -16 -16 -16 -17 -17 -17 -17 -17 -17 -17 -17 -17 -16 -16 -16 -16 -16 -16 -16
-15 -15 -15 -15 -15 -15 -15 -16 -16 -16 -17 -17 -17 -17 -17 -17 -17 -18 -17 -17 -17 -17 -17 -17 -16 -16 -17 -17 -17 -17 -17 -17
-14 -15 -15 -13 -14 -15 -16 -16 -16 -16 -17 -17 -17 -17 -18 -18 -18 -18 -18 -17 -17 -17 -17 -17 -17 -17 -17 -17 -17 -18 -18 -18
-14 -14 -15 -15 -16 -15 -16 -17 -17 -17 -17 -17 -17 -18 -18 -18 -18 -17 -17 -17 -17 -17 -17 -18 -18 -18 -18 -19 -19 -19 -19 -19
-15 -15 -15 -15 -16 -16 -17 -17 -16 -17 -17 -17 -17 -17 -17 -17 -17 -18 -18 -18 -19 -19 -19 -18 -19 -19 -19 -19 -19 -19 -20 -20
-15 -15 -15 -16 -16 -16 -15 -16 -16 -16 -17 -18 -18 -18 -19 -19 -19 -19 -19 -19 -18 -18 -18 -18 -18 -19 -19 -19 -19 -19 -20 -20
-15 -15 -15 -15 -16 -16 -17 -17 -18 -18 -19 -19 -19 -19 -19 -19 -18 -18 -18 -18 -18 -18 -18 -18 -19 -19 -20 -20 -20 -20 -20 -20
-15 -16 -16 -16 -16 -16 -16 -18 -19 -19 -19 -19 -18 -18 -18 -18 -18 -18 -18 -18 -18 -19 -19 -19 -20 -20 -20 -21 -21 -22 -23 -23
-17 -17 -17 -17 -16 -16 -17 -18 -18 -18 -18 -18 -18 -18 -18 -18 -18 -18 -18 -19 -19 -19 -19 -20 -21 -21 -22 -22 -23 -23 -24 -25
-16 -16 -16 -16 -17 -17 -18 -18 -18 -18 -18 -18 -18 -18 -18 -18 -18 -19 -19 -19 -19 -20 -21 -21 -22 -23 -23 -23 -25 -26 -28 -29
-16 -16 -16 -17 -17 -18 -18 -18 -18 -18 -19 -19 -18 -18 -18 -19 -19 -19 -19 -20 -20 -21 -22 -22 -23 -23 -25 -26 -28 -29 -30 -31
Height
5839 5840 5840 5839 5839 5840 5841 5841 5842 5841 5840 5839 5838 5837 5836 5835 5834 5832 5829 5827 5825 5824 5822 5820 5818 5816 5813 5811 5809 5807 5805 5804
5836 5837 5836 5838 5838 5838 5838 5839 5839 5838 5838 5837 5835 5833 5832 5831 5828 5827 5824 5821 5820 5818 5816 5813 5813 5810 5808 5805 5803 5800 5799 5798
5834 5835 5835 5836 5836 5836 5836 5836 5835 5834 5833 5832 5830 5829 5828 5826 5824 5822 5819 5817 5815 5813 5811 5808 5806 5804 5800 5798 5796 5795 5793 5792
5832 5832 5832 5832 5832 5833 5832 5832 5830 5830 5829 5828 5827 5825 5823 5821 5818 5817 5814 5811 5809 5808 5804 5802 5800 5797 5794 5792 5790 5788 5787 5786
5831 5830 5830 5830 5830 5829 5829 5827 5827 5826 5825 5823 5821 5819 5817 5815 5812 5810 5808 5806 5803 5800 5798 5795 5793 5790 5788 5786 5784 5782 5780 5778
5829 5828 5828 5827 5827 5826 5824 5823 5822 5821 5819 5817 5815 5813 5811 5809 5807 5804 5801 5798 5795 5793 5790 5788 5785 5784 5781 5779 5777 5775 5774 5773
5827 5826 5826 5825 5824 5822 5821 5819 5818 5816 5813 5812 5810 5808 5806 5803 5800 5797 5793 5790 5788 5785 5782 5780 5777 5776 5773 5771 5769 5768 5766 5764
5824 5824 5822 5822 5821 5819 5817 5813 5813 5811 5809 5806 5805 5803 5799 5796 5792 5788 5785 5782 5779 5776 5773 5771 5769 5767 5765 5762 5760 5757 5755 5754
5821 5820 5819 5818 5816 5814 5811 5808 5805 5806 5801 5799 5796 5794 5790 5786 5783 5780 5776 5774 5771 5767 5764 5762 5760 5758 5755 5753 5751 5748 5745 5742
5818 5818 5816 5814 5813 5810 5805 5800 5799 5797 5794 5793 5790 5786 5782 5778 5774 5771 5767 5764 5760 5757 5755 5752 5749 5746 5743 5740 5738 5735 5733 5730
5815 5815 5813 5811 5809 5805 5792 5791 5792 5790 5789 5785 5780 5775 5771 5766 5762 5758 5755 5752 5749 5746 5743 5740 5737 5734 5730 5726 5722 5719 5715 5712
5812 5809 5807 5801 5799 5794 5790 5789 5786 5784 5779 5775 5771 5764 5759 5754 5751 5749 5746 5743 5740 5735 5731 5727 5723 5718 5714 5709 5704 5699 5695 5691
5806 5803 5789 5796 5789 5787 5784 5781 5779 5775 5770 5764 5759 5754 5750 5747 5744 5740 5735 5730 5724 5719 5715 5710 5705 5701 5696 5691 5685 5679 5674 5669
5800 5797 5794 5789 5783 5781 5776 5772 5769 5765 5761 5756 5751 5747 5743 5739 5733 5727 5721 5716 5711 5706 5701 5696 5690 5684 5677 5670 5663 5657 5652 5643
5792 5789 5786 5780 5776 5770 5765 5762 5757 5752 5748 5745 5741 5737 5733 5728 5723 5716 5710 5704 5698 5692 5685 5678 5670 5661 5652 5642 5633 5626 5618 5613
5786 5783 5779 5774 5769 5765 5760 5756 5751 5746 5742 5737 5733 5728 5723 5718 5711 5704 5697 5690 5681 5673 5664 5656 5646 5636 5626 5615 5604 5595 5585 5583
5779 5775 5771 5767 5763 5759 5754 5749 5744 5739 5734 5729 5724 5718 5711 5704 5697 5689 5681 5671 5662 5653 5643 5632 5623 5612 5602 5591 5581 5568 5554 5540
5772 5768 5764 5760 5755 5750 5746 5741 5736 5731 5725 5718 5712 5705 5697 5690 5681 5672 5663 5653 5644 5634 5623 5611 5600 5588 5575 5562 5548 5535 5523 5509
5765 5762 5757 5752 5748 5743 5737 5732 5726 5720 5713 5706 5698 5691 5684 5675 5667 5657 5647 5636 5626 5615 5603 5590 5575 5562 5547 5531 5515 5504 5495 5487
5757 5753 5748 5743 5738 5733 5728 5722 5716 5709 5702 5694 5686 5678 5669 5661 5652 5641 5630 5618 5606 5593 5579 5563 5547 5532 5519 5505 5494 5485 5477 5471
Wind_Speed
10 12 12 10 8 8 8 10 12 14 17 19 21 22 23 25 28 28 27 28 28 28 31 31 30 30 30 27 28 30 30 29
11 11 11 8 8 8 9 13 15 17 20 21 22 23 25 26 26 27 29 29 27 33 36 33 32 31 31 31 31 29 29 29
8 9 6 5 6 10 13 16 18 20 19 22 24 24 24 26 26 28 31 33 30 38 35 36 36 35 34 34 32 30 28 26
6 6 6 7 10 14 16 18 19 20 21 23 25 23 24 27 28 30 32 31 33 40 38 36 37 35 33 33 32 31 30 27
5 5 7 10 13 15 18 20 22 21 21 23 24 23 27 31 35 35 34 35 38 38 39 39 35 33 30 29 28 28 28 28
4 7 11 13 15 18 21 25 25 24 25 27 25 27 32 33 35 36 38 40 35 38 39 37 34 33 30 30 29 28 26 25
8 9 13 17 19 23 24 28 29 29 26 26 26 28 32 37 40 40 37 37 39 39 38 38 37 35 34 32 31 31 30 28
10 14 15 18 20 22 24 27 27 27 28 20 24 32 36 38 42 38 35 40 43 43 41 39 37 34 33 34 35 37 37 37
16 17 20 21 21 22 27 31 30 19 21 29 33 44 42 40 38 33 42 50 45 44 44 38 36 36 38 40 43 44 46 48
15 18 23 25 27 28 31 24 22 20 29 33 41 44 44 42 50 50 50 44 43 41 40 40 42 45 48 50 52 53 54 55
21 22 23 24 26 35 29 30 26 33 40 39 38 38 42 51 48 45 45 41 39 41 44 47 50 54 57 58 60 62 64 66
20 22 25 33 27 39 38 36 40 43 44 41 45 46 43 44 44 42 40 42 45 47 51 55 58 61 64 67 70 71 72 73
20 26 23 41 42 44 43 44 45 46 48 48 47 45 44 43 41 42 46 50 54 57 60 63 66 68 70 71 71 73 75 76
25 30 35 42 39 42 45 44 49 51 49 45 43 42 40 42 46 51 55 58 59 60 62 64 66 72 75 78 81 82 83 88
30 34 40 42 42 45 53 55 59 58 54 50 47 47 48 50 53 56 58 58 61 64 69 72 78 83 85 89 92 94 97 101
34 38 42 42 43 50 53 57 52 53 53 51 50 51 52 55 56 59 61 64 68 72 76 81 85 88 91 95 100 103 109 113
32 38 40 41 49 53 53 48 51 50 52 52 52 54 57 60 62 64 67 71 76 81 86 89 91 93 96 100 104 109 110 109
36 40 41 47 49 49 48 49 50 50 52 53 56 58 61 62 65 69 73 78 82 87 92 93 95 98 102 107 109 103 94 88
38 39 39 42 44 46 48 50 54 53 53 56 59 61 61 65 70 74 78 83 88 92 92 95 100 105 109 107 93 81 73 65
32 35 38 41 44 47 50 51 51 53 56 59 61 62 66 70 74 79 84 89 93 94 97 102 106 110 100 84 68 60 53 46
Wind_Direction
251 250 237 212 209 218 237 257 268 274 276 282 286 290 294 300 304 307 305 305 306 309 309 309 307 302 300 299 300 301 299 295
237 230 204 216 233 251 267 275 278 283 286 289 288 291 296 300 303 305 304 302 305 316 313 309 305 299 296 295 298 299 298 292
202 192 204 238 269 277 278 281 286 284 284 282 282 289 296 299 304 306 307 303 302 314 311 311 307 302 298 296 296 297 295 293
186 200 224 254 270 273 276 273 273 279 284 290 291 293 295 299 301 306 306 304 300 307 306 305 302 297 297 297 296 295 294 293
229 252 268 267 263 268 275 279 282 285 288 284 280 286 297 300 304 302 299 295 297 299 301 300 297 295 294 292 291 291 290 291
269 266 257 263 274 281 282 283 282 280 280 275 273 284 291 299 304 303 302 299 297 298 298 298 296 293 290 287 286 285 284 285
263 277 284 288 295 294 285 283 281 273 270 269 274 288 295 304 305 303 298 299 302 299 296 296 295 292 290 288 286 284 283 284
288 297 293 296 293 286 283 274 273 268 278 274 287 309 306 306 307 304 299 305 305 299 298 296 295 292 291 290 288 286 285 284
291 295 291 294 280 277 275 268 259 294 320 316 310 316 315 313 306 300 303 304 298 295 294 289 287 288 289 289 289 287 285 284
278 279 283 283 274 274 266 242 275 278 321 314 311 308 305 299 301 298 298 298 296 292 288 290 292 293 295 294 293 290 288 286
271 268 267 272 281 273 292 321 309 315 313 309 304 303 296 302 302 302 302 302 298 298 298 297 296 297 297 297 296 294 292 290
272 278 272 268 268 297 319 315 313 311 315 309 305 305 305 305 304 302 302 301 300 299 299 300 300 301 301 300 299 297 295 293
280 272 307 289 310 313 314 318 316 314 313 314 310 307 304 299 297 298 300 304 307 307 307 307 305 303 302 300 297 295 294 293
288 289 299 307 310 311 313 313 313 315 312 310 305 300 298 300 306 309 308 307 305 304 303 301 302 304 303 301 301 299 299 298
290 301 304 309 306 310 312 307 309 315 315 314 311 308 308 307 304 302 301 302 302 302 302 304 305 306 305 305 305 302 300 300
299 299 301 301 300 304 307 310 314 311 309 306 304 303 301 298 298 301 303 303 304 305 305 305 306 307 307 306 304 303 300 298
297 302 298 296 288 297 307 312 310 302 298 296 294 295 298 301 303 304 306 306 307 308 308 308 308 307 305 304 303 302 300 297
304 293 292 295 301 308 309 304 300 296 294 295 298 301 303 305 307 308 308 309 309 309 309 309 307 306 306 306 306 304 300 294
300 303 305 305 304 304 301 297 297 298 300 302 305 305 305 307 308 308 308 308 308 308 308 308 309 310 310 311 306 301 298 296
307 306 305 304 303 300 298 300 302 303 303 304 304 306 308 308 309 308 308 310 311 311 310 312 312 312 312 308 304 301 300 299